DW8463 Weather Reports


time (UTC)temp
F
wind
direction
speed
knots
gust
knots
rain 1hr
in
rain 24hr
in
rain mn
in
humidity
%
barometer
mb
20260906100803 67 87 0.0 2.6 0.00 0.00 0.00 100 1015.9
20260906100303 67 87 0.9 2.6 0.00 0.00 0.00 100 1015.9
20260906095803 67 87 1.7 2.6 0.00 0.00 0.00 100 1015.9
20260906095305 67 87 0.0 1.7 0.00 0.00 0.00 100 1015.8
20260906094803 67 87 1.7 2.6 0.00 0.00 0.00 100 1015.6
20260906094304 67 117 0.9 2.6 0.00 0.00 0.00 100 1015.6
20260906093803 67 117 0.9 2.6 0.00 0.00 0.00 100 1015.6
20260906093303 67 88 0.9 2.6 0.00 0.00 0.00 100 1015.6
20260906092803 67 88 0.9 1.7 0.00 0.00 0.00 100 1015.5
20260906092306 67 56 0.9 2.6 0.00 0.00 0.00 100 1015.5
20260906091303 67 69 1.7 4.3 0.00 0.00 0.00 100 1015.5
20260906090803 67 66 0.9 2.6 0.00 0.00 0.00 100 1015.4
20260906090303 67 106 0.9 5.2 0.00 0.00 0.00 100 1015.3
20260906085803 68 72 0.9 2.6 0.00 0.00 0.00 100 1015.3
20260906085306 68 99 1.7 2.6 0.00 0.00 0.00 100 1015.2
20260906084304 68 85 0.9 2.6 0.00 0.00 0.00 100 1015.2
20260906083803 68 98 1.7 2.6 0.00 0.00 0.00 100 1015.1
20260906082803 68 78 1.7 5.2 0.00 0.00 0.00 100 1015.2
20260906082306 68 71 1.7 4.3 0.00 0.00 0.00 100 1015.2
20260906080803 68 128 0.9 2.6 0.00 0.00 0.00 100 1015.6
20260906080303 68 128 0.0 1.7 0.00 0.00 0.00 100 1015.6
20260906075803 68 128 0.9 2.6 0.00 0.00 0.00 100 1015.7
20260906075306 68 128 0.0 0.0 0.00 0.00 0.00 100 1015.7
20260906074303 68 128 0.0 0.0 0.00 0.00 0.00 100 1015.7
20260906073803 68 128 0.0 0.9 0.00 0.00 0.00 100 1015.6
20260906073303 68 128 0.9 1.7 0.00 0.00 0.00 100 1015.7
20260906072803 68 128 0.0 1.7 0.00 0.00 0.00 100 1015.6
20260906072305 68 128 0.0 0.0 0.00 0.00 0.00 100 1015.6
20260906070803 68 128 0.0 0.0 0.00 0.00 0.00 100 1015.7
20260906065803 68 128 0.0 0.0 0.00 0.00 0.00 100 1015.8
20260906065305 68 128 0.0 0.0 0.00 0.00 0.00 100 1015.7
20260906064803 68 128 0.0 0.0 0.00 0.00 0.00 100 1015.7
20260906064303 68 128 0.0 0.0 0.00 0.00 0.00 100 1015.7
20260906063803 68 128 0.0 0.0 0.00 0.00 0.00 100 1015.8
20260906063304 68 132 0.0 0.0 0.00 0.00 0.00 100 1015.8
20260906062306 68 132 0.0 0.0 0.00 0.00 0.00 100 1015.8
20260906061803 68 132 0.0 0.0 0.00 0.00 0.00 100 1015.8
20260906061303 68 132 0.0 0.0 0.00 0.00 0.00 100 1015.9
20260906060803 68 132 0.0 0.0 0.00 0.00 0.00 100 1016.0
20260906060303 69 132 0.0 0.0 0.00 0.00 0.00 100 1016.0
20260906054803 69 132 0.0 0.0 0.00 0.00 0.00 100 1015.9
20260906054303 69 132 0.0 0.0 0.00 0.00 0.00 100 1015.9
20260906053304 69 132 0.0 0.0 0.00 0.00 0.00 100 1016.1
20260906052804 69 133 0.0 0.0 0.00 0.00 0.00 100 1016.1
20260906052305 69 133 0.0 0.0 0.00 0.00 0.00 100 1016.1
20260906051803 69 133 0.0 0.0 0.00 0.00 0.00 100 1016.1
20260906051303 69 133 0.0 0.9 0.00 0.00 0.00 100 1016.0
20260906050814 69 132 0.0 2.6 0.00 0.00 0.00 100 1016.0
20260906050303 70 133 0.0 1.7 0.00 0.00 0.00 100 1016.0
20260906045804 70 133 0.0 2.6 0.00 0.00 0.00 100 1016.0
20260906045305 70 133 0.9 2.6 0.00 0.00 0.00 100 1016.1
20260906044803 70 133 0.9 2.6 0.00 0.00 0.00 100 1016.0
20260906044304 70 133 0.9 2.6 0.00 0.00 0.00 100 1016.0
20260906043803 70 133 0.9 2.6 0.00 0.00 0.00 100 1016.0
20260906043303 70 133 0.9 2.6 0.00 0.00 0.00 100 1016.1
20260906042803 70 133 0.9 1.7 0.00 0.00 0.00 100 1016.1
20260906042306 70 133 0.9 1.7 0.00 0.00 0.00 100 1016.1
20260906041803 70 133 0.0 1.7 0.00 0.00 0.00 100 1016.1
20260906041303 70 133 0.0 1.7 0.00 0.00 0.00 100 1016.0
20260906040803 71 133 0.9 1.7 0.00 0.00 0.00 100 1015.9
20260906040303 71 133 0.0 1.7 0.00 0.00 0.00 100 1016.0
20260906035803 71 133 0.0 0.0 0.00 0.00 0.00 100 1015.9
20260906035306 71 133 0.0 0.9 0.00 0.00 0.00 100 1015.8
20260906034804 70 133 0.0 1.7 0.00 0.00 0.00 100 1015.8
20260906033304 71 133 0.0 0.0 0.00 0.00 0.00 100 1016.0
20260906032804 71 133 0.0 0.0 0.00 0.00 0.00 100 1016.0
20260906032306 71 133 0.0 0.0 0.00 0.00 0.00 100 1016.0
20260906031303 71 133 0.0 0.0 0.00 0.00 0.00 100 1016.0
20260906030802 71 133 0.0 0.0 0.00 0.00 0.00 100 1016.0
20260906030303 71 133 0.0 0.0 0.00 0.00 0.00 100 1016.0
20260906025803 71 133 0.0 0.0 0.00 0.00 0.00 100 1015.8
20260906025306 71 133 0.0 0.0 0.00 0.00 0.00 100 1015.7
20260906024303 71 133 0.0 0.0 0.00 0.00 0.00 100 1015.6
20260906023803 71 133 0.0 0.9 0.00 0.00 0.00 100 1015.5
20260906023303 71 133 0.0 0.0 0.00 0.00 0.00 100 1015.5
20260906022803 71 133 0.0 0.0 0.00 0.00 0.00 100 1015.4
20260906022306 71 133 0.0 0.0 0.00 0.00 0.00 100 1015.1
20260906021803 71 133 0.0 0.0 0.00 0.00 0.00 100 1015.1
20260906021303 71 133 0.0 0.0 0.00 0.00 0.00 100 1015.1
20260906020303 71 133 0.0 0.0 0.00 0.00 0.00 100 1014.7
20260906015803 71 133 0.0 0.0 0.00 0.00 0.00 100 1014.7
20260906015306 71 133 0.0 0.0 0.00 0.00 0.00 100 1014.5
20260906014803 71 133 0.0 0.0 0.00 0.00 0.00 100 1014.3
20260906014304 71 133 0.0 0.0 0.00 0.00 0.00 100 1014.3
20260906013803 71 133 0.0 0.0 0.00 0.00 0.00 100 1014.3
20260906013303 71 133 0.0 0.0 0.00 0.00 0.00 100 1014.2
20260906012803 71 133 0.0 0.0 0.00 0.00 0.00 100 1014.3
20260906012306 71 133 0.0 0.0 0.00 0.00 0.00 100 1014.3
20260906011803 72 133 0.0 0.0 0.00 0.00 0.00 100 1014.3
20260906011303 72 133 0.0 0.0 0.00 0.00 0.00 100 1014.2
20260906010803 72 133 0.0 0.9 0.00 0.00 0.00 100 1014.1
20260906005803 72 133 0.0 0.0 0.00 0.00 0.00 100 1013.9
20260906004803 72 133 0.0 0.0 0.00 0.00 0.00 100 1013.8
20260906004303 73 133 0.0 0.0 0.00 0.00 0.00 100 1013.8
20260906003803 73 133 0.0 0.0 0.00 0.00 0.00 100 1013.7
20260906003303 73 133 0.0 0.9 0.00 0.00 0.00 100 1013.7
20260906002305 74 133 0.0 0.0 0.00 0.00 0.00 100 1013.8
20260906001803 75 133 0.0 1.7 0.00 0.00 0.00 100 1013.7
20260906001303 75 125 0.9 2.6 0.00 0.00 0.00 100 1013.7
20260906000803 76 93 0.9 2.6 0.00 0.00 0.00 100 1013.8
20260905235803 76 118 1.7 4.3 0.00 0.00 0.00 90 1013.9
20260905234803 76 100 1.7 4.3 0.00 0.00 0.00 90 1013.9
20260905233803 77 123 2.6 7.8 0.00 0.00 0.00 90 1013.8
20260905232803 77 135 3.5 7.0 0.00 0.00 0.00 90 1013.7
20260905232306 77 121 1.7 7.0 0.00 0.00 0.00 90 1013.6
20260905231803 77 118 1.7 6.1 0.00 0.00 0.00 90 1013.4
20260905230803 77 76 3.5 8.7 0.00 0.00 0.00 90 1013.4
20260905230303 77 92 2.6 7.8 0.00 0.00 0.00 90 1013.3
20260905225804 77 75 2.6 8.7 0.00 0.00 0.00 91 1013.2
20260905224303 77 64 1.7 5.2 0.00 0.00 0.00 91 1013.1
20260905223803 77 110 2.6 7.8 0.00 0.00 0.00 91 1013.1
20260905223303 77 67 5.2 10.4 0.00 0.00 0.00 91 1013.0
20260905222803 77 80 7.8 10.4 0.00 0.00 0.00 91 1013.0
20260905222306 77 71 2.6 10.4 0.00 0.00 0.00 91 1013.0
20260905221303 77 78 2.6 10.4 0.00 0.00 0.00 91 1012.9
20260905220803 78 71 5.2 13.0 0.00 0.00 0.00 91 1012.8
20260905220303 78 76 5.2 11.3 0.00 0.00 0.00 91 1012.7
20260905215306 78 95 6.1 10.4 0.00 0.00 0.00 92 1012.9
20260905214304 79 74 5.2 11.3 0.00 0.00 0.00 92 1013.0
20260905213804 79 41 3.5 10.4 0.00 0.00 0.00 92 1013.1
20260905213303 79 71 6.1 11.3 0.00 0.00 0.00 92 1013.0
20260905212803 79 66 4.3 7.0 0.00 0.00 0.00 92 1013.0
20260905212306 79 69 4.3 11.3 0.00 0.00 0.00 92 1013.0
20260905211803 79 78 3.5 11.3 0.00 0.00 0.00 92 1013.2
20260905211303 79 67 6.1 10.4 0.00 0.00 0.00 92 1013.2
20260905210803 79 70 5.2 10.4 0.00 0.00 0.00 92 1013.2
20260905210303 79 80 5.2 10.4 0.00 0.00 0.00 92 1013.2
20260905205803 79 88 6.1 10.4 0.00 0.00 0.00 93 1013.2
20260905205306 79 52 5.2 10.4 0.00 0.00 0.00 93 1013.3
20260905204803 80 59 5.2 8.7 0.00 0.00 0.00 93 1013.4
20260905204303 80 87 4.3 8.7 0.00 0.00 0.00 93 1013.6
20260905203803 80 32 3.5 8.7 0.00 0.00 0.00 93 1013.5
20260905202803 80 86 3.5 8.7 0.00 0.00 0.00 93 1013.8
20260905202306 80 79 4.3 8.7 0.00 0.00 0.00 93 1013.9
20260905200803 80 77 2.6 6.1 0.00 0.00 0.00 93 1014.1
20260905195803 80 122 0.0 5.2 0.00 0.00 0.00 93 1014.3
20260905195306 79 181 0.9 2.6 0.00 0.00 0.00 93 1014.4
20260905194803 80 181 0.9 2.6 0.00 0.00 0.00 93 1014.4
20260905194304 80 161 0.0 2.6 0.00 0.00 0.00 93 1014.3
20260905193803 80 125 0.9 5.2 0.00 0.00 0.00 93 1014.5
20260905193303 80 223 0.9 2.6 0.00 0.00 0.00 93 1014.4
20260905192803 80 223 0.9 5.2 0.00 0.00 0.00 93 1014.5
20260905192306 80 132 0.9 5.2 0.00 0.00 0.00 93 1014.5
20260905191303 81 191 1.7 6.1 0.00 0.00 0.00 93 1014.4
20260905185803 81 151 3.5 7.0 0.00 0.00 0.00 94 1014.4
20260905185305 80 238 1.7 7.0 0.00 0.00 0.00 94 1014.5
20260905184803 81 119 1.7 7.8 0.00 0.00 0.00 94 1014.5
20260905183803 80 163 2.6 6.1 0.00 0.00 0.00 94 1014.6
20260905183303 80 41 2.6 7.0 0.00 0.00 0.00 94 1014.6
20260905182803 80 77 4.3 7.8 0.00 0.00 0.00 94 1014.6
20260905182305 78 61 1.7 4.3 0.00 0.00 0.00 94 1014.8
20260905181803 78 73 1.7 6.1 0.00 0.00 0.00 94 1014.8
20260905181303 78 35 1.7 6.1 0.00 0.00 0.00 94 1014.9
20260905180803 77 110 1.7 7.0 0.00 0.00 0.00 94 1015.1
20260905174803 76 199 0.0 2.6 0.00 0.00 0.00 100 1015.4
20260905174303 76 170 1.7 2.6 0.00 0.00 0.00 100 1015.5
20260905173803 76 138 0.0 2.6 0.00 0.00 0.00 100 1015.5
20260905173303 76 63 1.7 4.3 0.00 0.00 0.00 100 1015.4
20260905172803 76 77 1.7 2.6 0.00 0.00 0.00 100 1015.4
20260905172305 76 75 4.3 7.0 0.00 0.00 0.00 100 1015.4
20260905171803 76 87 2.6 6.1 0.00 0.00 0.00 100 1015.5
20260905171303 76 119 1.7 2.6 0.00 0.00 0.00 100 1015.6
20260905170803 76 167 0.9 2.6 0.00 0.00 0.00 100 1015.7
20260905170303 76 138 0.0 2.6 0.00 0.00 0.00 100 1015.7
20260905165803 75 135 1.7 5.2 0.00 0.00 0.00 100 1015.7
20260905165306 76 190 0.9 2.6 0.00 0.00 0.00 100 1015.6
20260905163803 75 166 0.9 2.6 0.00 0.00 0.00 100 1015.5
20260905163303 75 117 3.5 7.0 0.00 0.00 0.00 100 1015.4
20260905162804 75 91 2.6 7.8 0.00 0.00 0.00 100 1015.3
20260905162305 75 68 2.6 7.8 0.00 0.00 0.00 100 1015.2
20260905161803 75 69 1.7 6.1 0.00 0.00 0.00 100 1015.2
20260905161303 75 58 1.7 2.6 0.00 0.00 0.00 100 1015.1
20260905160803 75 106 2.6 5.2 0.00 0.00 0.00 100 1015.1
20260905160303 75 74 1.7 7.0 0.00 0.00 0.00 100 1015.0
20260905155804 75 137 1.7 7.0 0.00 0.00 0.00 100 1015.1
20260905155306 75 95 2.6 5.2 0.00 0.00 0.00 100 1015.0
20260905154803 75 79 4.3 7.0 0.00 0.00 0.00 100 1015.0
20260905154303 75 92 4.3 10.4 0.00 0.00 0.00 100 1015.0
20260905153803 74 83 4.3 10.4 0.00 0.00 0.00 100 1015.0
20260905153303 75 105 0.9 5.2 0.00 0.00 0.00 100 1014.9
20260905152803 75 72 2.6 5.2 0.00 0.00 0.00 100 1015.1
20260905152306 75 88 2.6 7.8 0.00 0.00 0.00 100 1015.0
20260905151804 74 70 3.5 8.7 0.00 0.00 0.00 100 1015.0
20260905151304 74 93 2.6 7.0 0.00 0.00 0.00 100 1015.0
20260905150803 74 81 2.6 7.0 0.00 0.00 0.00 100 1014.9
20260905150304 74 64 2.6 7.0 0.00 0.00 0.00 100 1014.9
20260905145804 74 51 1.7 2.6 0.00 0.00 0.00 100 1014.8
20260905145306 74 57 2.6 6.1 0.00 0.00 0.00 100 1014.9
20260905144803 73 87 2.6 6.1 0.00 0.00 0.00 100 1015.0
20260905144303 73 72 2.6 6.1 0.00 0.00 0.00 100 1014.8
20260905143803 73 100 0.9 6.1 0.00 0.00 0.00 100 1014.9
20260905143303 73 71 4.3 7.8 0.00 0.00 0.00 100 1014.8
20260905142803 73 93 1.7 7.0 0.00 0.00 0.00 100 1014.7
20260905142306 73 75 4.3 7.0 0.00 0.00 0.00 100 1014.6
20260905141803 73 77 2.6 6.1 0.00 0.00 0.00 100 1014.7
20260905141304 73 40 2.6 5.2 0.00 0.00 0.00 100 1014.6
20260905140303 73 78 2.6 6.1 0.00 0.00 0.00 100 1014.5
20260905135803 72 80 2.6 5.2 0.00 0.00 0.00 100 1014.4
20260905135306 72 71 4.3 7.8 0.00 0.00 0.00 100 1014.5
20260905134803 72 73 3.5 8.7 0.00 0.00 0.00 100 1014.4
20260905134303 72 97 4.3 7.8 0.00 0.00 0.00 100 1014.5
20260905133803 72 79 1.7 6.1 0.00 0.00 0.00 100 1014.3
20260905133303 71 71 2.6 7.0 0.00 0.00 0.00 100 1014.3
20260905132803 71 98 2.6 6.1 0.00 0.00 0.00 100 1014.4
20260905132305 71 45 2.6 7.8 0.00 0.00 0.00 100 1014.3
20260905131804 71 65 0.9 5.2 0.00 0.00 0.00 100 1014.1
20260905131303 71 66 1.7 5.2 0.00 0.00 0.00 100 1014.0
20260905130803 71 89 0.9 4.3 0.00 0.00 0.00 100 1013.8
20260905125803 70 65 4.3 8.7 0.00 0.00 0.00 100 1013.4
20260905125306 70 89 2.6 7.8 0.00 0.00 0.00 100 1013.5
20260905124803 70 68 2.6 7.0 0.00 0.00 0.00 100 1013.3
20260905124303 70 74 2.6 6.1 0.00 0.00 0.00 100 1013.2
20260905123803 70 89 1.7 5.2 0.00 0.00 0.00 100 1013.1
20260905123303 70 36 1.7 7.0 0.00 0.00 0.00 100 1013.1
20260905122803 70 58 4.3 8.7 0.00 0.00 0.00 100 1013.1
20260905122306 70 78 1.7 6.1 0.00 0.00 0.00 100 1013.2
20260905121803 70 83 2.6 5.2 0.00 0.00 0.00 100 1013.2
20260905121303 70 76 2.6 7.0 0.00 0.00 0.00 100 1013.3
20260905120804 70 33 1.7 4.3 0.00 0.00 0.00 100 1013.2
20260905120304 70 84 0.9 5.2 0.00 0.00 0.00 100 1013.2
20260905115803 70 92 2.6 6.1 0.00 0.00 0.00 100 1013.0
20260905115306 70 80 2.6 6.1 0.00 0.00 0.00 100 1013.0
20260905114803 70 61 1.7 7.0 0.00 0.00 0.00 100 1012.9
20260905114303 70 47 2.6 6.1 0.00 0.00 0.00 100 1013.0
20260905113803 70 43 1.7 5.2 0.00 0.00 0.00 100 1013.0
20260905112803 70 73 2.6 4.3 0.00 0.00 0.00 100 1012.9
20260905112305 70 86 1.7 2.6 0.00 0.00 0.00 100 1012.9
20260905111303 70 58 0.9 2.6 0.00 0.00 0.00 100 1013.0
20260905105804 70 71 1.7 4.3 0.00 0.00 0.00 100 1013.0
20260905105306 70 84 2.6 5.2 0.00 0.00 0.00 100 1012.9
20260905104803 70 89 0.9 4.3 0.00 0.00 0.00 100 1012.9
20260905104303 70 90 1.7 4.3 0.00 0.00 0.00 100 1012.8
20260905103804 70 63 0.9 2.6 0.00 0.00 0.00 100 1012.7
20260905102306 70 57 1.7 4.3 0.00 0.00 0.00 100 1012.7
20260905101304 70 337 0.0 0.9 0.00 0.00 0.00 100 1012.9